[[{"header":{"parameterUnit":"m.s-1","parameterCategory":1,"la1":30.2991,"la2":30.254,"lo1":-89.0895,"lo2":-89.0444,"dy":0.0017,"dx":0.0017,"nx":28,"ny":28,"refTime":"2025-09-06T21:00:00:Z","depth":0,"parameterNumber":2,"parameterNumberName":"U-component_of_WINDS"},"data":[0,0,0,0,0,0,0,0,0,0,0,0,0,0,0,0,0,0,0,0,0,0,0,0,0,0,0,0,0,0,0,0,0,0,0,0,0,0,0,0,0,0,0,0,0,0,0,0,0,0,0,0,0,0,0,0,0,0,-0.607,-0.6069,0,-0.5988,-0.5987,-0.5986,-0.5933,-0.5933,-0.5932,-0.5932,-0.5846,-0.5844,-0.5842,0,0,0,0,0,0,0,0,0,0,0,0,0,-0.6176,-0.6174,-0.607,-0.6069,-0.6068,-0.5988,-0.5987,-0.5986,-0.5933,-0.5933,-0.5932,-0.5932,-0.5846,-0.5844,-0.5841,0,0,0,0,0,0,0,0,0,0,0,0,0,-0.6115,-0.6174,-0.607,-0.6032,-0.6028,-0.5989,-0.5987,-0.5986,-0.5933,-0.5933,-0.5932,-0.5932,-0.5847,-0.5844,-0.5841,-0.5833,0,0,-0.5832,-0.5831,0,0,0,0,0,0,0,0,-0.6119,-0.6112,-0.6039,-0.6034,-0.603,-0.597,-0.5993,-0.5934,-0.5933,-0.5969,-0.5932,-0.5931,-0.5887,-0.5881,-0.5867,-0.5829,-0.5825,-0.5832,-0.583,-0.5829,-0.5828,0,0,0,0,0,0,0,-0.6123,-0.6115,-0.6038,-0.6038,-0.6032,-0.6017,-0.6008,-0.5981,-0.5932,-0.5966,-0.5962,-0.5953,-0.5885,-0.587,-0.5864,-0.5824,-0.5832,-0.5829,-0.5827,-0.5826,-0.5773,-0.5773,0,0,0,0,0,0,-0.6134,-0.6119,-0.604,-0.6035,-0.6074,-0.6016,-0.6006,-0.599,-0.5932,-0.5923,-0.5953,-0.5951,-0.5875,-0.5868,-0.5861,-0.5846,-0.5829,-0.5826,-0.5824,-0.5772,-0.5773,-0.5773,0,0,0,0,0,0,-0.6136,-0.6127,-0.6043,-0.6076,-0.6064,-0.6015,-0.5997,-0.5989,-0.5973,-0.5923,-0.5913,-0.5948,-0.5874,-0.5865,-0.584,-0.5843,-0.5825,-0.5822,-0.5772,-0.5773,-0.5773,-0.5818,0,0,0,0,0,0,-0.614,-0.6129,-0.6126,-0.6076,-0.6062,-0.6025,-0.5997,-0.5987,-0.5969,-0.5964,-0.5915,-0.5906,-0.5873,-0.5845,-0.5837,-0.5838,-0.582,-0.5772,-0.5772,-0.5773,-0.5816,-0.582,-0.5824,0,0,0,0,0,-0.6144,-0.6142,-0.6126,-0.6117,-0.6058,-0.6026,-0.6018,-0.5981,-0.5969,-0.5965,-0.5933,-0.5907,-0.5844,-0.5843,-0.5833,-0.5834,-0.5771,-0.5772,-0.5773,-0.5815,-0.5819,-0.5823,0,0,0,0,0,0,-0.6193,-0.6135,-0.6117,-0.6099,-0.6068,-0.6017,-0.6011,-0.5987,-0.5958,-0.5955,-0.591,-0.5899,-0.5878,-0.5853,-0.5853,-0.5822,-0.5804,-0.5803,-0.5839,-0.5843,-0.5847,-0.5853,-0.5817,0,0,0,0,0,-0.6202,-0.6181,-0.6131,-0.612,-0.6105,-0.6061,-0.6045,-0.602,-0.5985,-0.5971,-0.5936,-0.5903,-0.5875,-0.5858,-0.5829,-0.5812,-0.58,-0.5808,-0.5811,-0.5815,-0.5814,-0.5802,-0.5804,-0.5776,-0.5776,-0.5776,0,0,-0.622,-0.6185,-0.6175,-0.6129,-0.6102,-0.608,-0.605,-0.6029,-0.6012,-0.5967,-0.5942,-0.5915,-0.5874,-0.5853,-0.5841,-0.5831,-0.5819,-0.5816,-0.5819,-0.5816,-0.5803,-0.5806,-0.5808,-0.5777,-0.5777,-0.5776,0,0,-0.6241,-0.6214,-0.6201,-0.6174,-0.6134,-0.6104,-0.6101,-0.6053,-0.6034,-0.6007,-0.5973,-0.5951,-0.5905,-0.5877,-0.5856,-0.5866,-0.5841,-0.5857,-0.5877,-0.5865,-0.5867,-0.5869,-0.5871,-0.5873,-0.5857,-0.5857,-0.5857,0,-0.6269,-0.6236,-0.6197,-0.6178,-0.6158,-0.6117,-0.6103,-0.6078,-0.603,-0.6017,-0.6006,-0.5946,-0.5915,-0.5886,-0.5888,-0.5873,-0.5867,-0.5863,-0.587,-0.5872,-0.5873,-0.5874,-0.5876,-0.586,-0.5859,-0.5859,-0.5859,0,-0.6271,-0.6248,-0.6243,-0.6198,-0.6177,-0.616,-0.6118,-0.6101,-0.6077,-0.6048,-0.602,-0.5982,-0.5945,-0.5936,-0.5912,-0.5902,-0.5897,-0.5879,-0.5861,-0.5878,-0.5879,-0.588,-0.5863,-0.5862,-0.5861,-0.5861,0,0,-0.6323,-0.6256,-0.6254,-0.6233,-0.6184,-0.6165,-0.6145,-0.611,-0.6096,-0.6063,-0.6045,-0.6005,-0.5988,-0.5965,-0.5937,-0.5927,-0.5935,-0.5909,-0.5907,-0.5915,-0.5921,-0.5935,-0.5936,-0.5918,-0.5918,-0.5918,-0.5924,0,-0.6337,-0.6301,-0.6265,-0.6241,-0.6219,-0.6179,-0.6162,-0.6129,-0.6101,-0.6077,-0.6045,-0.6018,-0.5997,-0.5983,-0.5971,-0.5937,-0.5935,-0.5936,-0.5899,-0.5898,-0.5911,-0.5937,-0.5952,-0.596,-0.5924,-0.5924,-0.5924,0,-0.6349,-0.6319,-0.6293,-0.6245,-0.6235,-0.622,-0.6183,-0.6161,-0.6122,-0.6102,-0.6076,-0.6046,-0.6022,-0.6006,-0.5971,-0.5971,-0.5954,-0.5935,-0.5934,-0.5929,-0.5913,-0.5932,-0.5961,-0.5962,-0.5924,-0.5924,-0.5924,0,-0.6388,-0.6341,-0.632,-0.6302,-0.6246,-0.6236,-0.6212,-0.6173,-0.6153,-0.612,-0.6107,-0.6072,-0.6052,-0.6025,-0.5986,-0.5978,-0.5954,-0.5935,-0.5936,-0.5937,-0.5933,-0.5934,-0.5959,-0.5922,-0.5922,-0.5922,-0.5922,0,-0.6408,-0.6394,-0.6336,-0.6323,-0.6305,-0.6263,-0.6246,-0.6218,-0.6183,-0.6162,-0.6125,-0.6106,-0.6056,-0.603,-0.5999,-0.5974,-0.5965,-0.5948,-0.594,-0.5951,-0.5953,-0.5939,-0.5937,-0.5922,-0.5922,-0.5922,-0.5922,0,-0.645,-0.6411,-0.6384,-0.6333,-0.6319,-0.6309,-0.6264,-0.6248,-0.6217,-0.6192,-0.6183,-0.6134,-0.6102,-0.606,-0.6015,-0.5993,-0.5972,-0.5959,-0.5985,-0.5981,-0.5983,-0.5984,-0.6001,-0.6,-0.5964,-0.5965,-0.5965,0,-0.6465,-0.6453,-0.64,-0.6384,-0.6361,-0.6336,-0.6315,-0.6272,-0.6252,-0.6206,-0.6196,-0.6161,-0.6131,-0.6081,-0.6041,-0.6005,-0.5991,-0.6,-0.5986,-0.5997,-0.5991,-0.5992,-0.599,-0.6003,-0.6004,-0.6004,-0.6005,0,-0.6496,-0.6477,-0.6449,-0.6415,-0.6392,-0.6362,-0.6331,-0.6319,-0.6269,-0.6248,-0.6215,-0.6192,-0.6145,-0.6111,-0.6069,-0.6043,-0.6015,-0.6009,-0.6007,-0.6019,-0.6035,-0.6026,-0.5995,-0.6009,-0.6009,-0.6009,-0.6008,-0.6008,-0.6524,-0.6511,-0.6472,-0.6442,-0.6414,-0.6385,-0.6368,-0.6335,-0.6307,-0.6266,-0.6242,-0.6209,-0.6169,-0.6111,-0.6085,-0.6058,-0.6047,-0.6045,-0.6044,-0.6044,-0.6048,-0.6039,-0.605,-0.605,-0.605,-0.605,-0.6049,0,-0.6552,-0.6525,-0.6498,-0.6455,-0.6431,-0.6408,-0.6372,-0.6353,-0.6325,-0.629,-0.6261,-0.6222,-0.6188,-0.6144,-0.6107,-0.6093,-0.6079,-0.6085,-0.6085,-0.6079,-0.606,-0.6065,-0.6096,-0.6096,-0.6096,-0.6096,-0.6096,-0.6096,-0.6564,-0.6541,-0.6517,-0.6479,-0.6451,-0.642,-0.6401,-0.6373,-0.6345,-0.6304,-0.6275,-0.6247,-0.6208,-0.6167,-0.6133,-0.6121,-0.6109,-0.6118,-0.6102,-0.6085,-0.6081,-0.6077,-0.6081,-0.6116,-0.6116,-0.6123,-0.6124,-0.6124]},{"header":{"parameterUnit":"m.s-1","parameterCategory":1,"la1":30.2991,"la2":30.254,"lo1":-89.0895,"lo2":-89.0444,"dy":0.0017,"dx":0.0017,"nx":28,"ny":28,"refTime":"2025-09-06T21:00:00:Z","depth":0,"parameterNumber":3,"parameterNumberName":"V-component_of_WINDS"},"data":[0,0,0,0,0,0,0,0,0,0,0,0,0,0,0,0,0,0,0,0,0,0,0,0,0,0,0,0,0,0,0,0,0,0,0,0,0,0,0,0,0,0,0,0,0,0,0,0,0,0,0,0,0,0,0,0,0,0,-3.2516,-3.2516,0,-3.2541,-3.2542,-3.2542,-3.2596,-3.2597,-3.2598,-3.2599,-3.2618,-3.2618,-3.2617,0,0,0,0,0,0,0,0,0,0,0,0,0,-3.2508,-3.2508,-3.2516,-3.2516,-3.2516,-3.2541,-3.2542,-3.2542,-3.2595,-3.2597,-3.2598,-3.2599,-3.2618,-3.2618,-3.2617,0,0,0,0,0,0,0,0,0,0,0,0,0,-3.252,-3.2508,-3.2516,-3.2546,-3.2549,-3.2541,-3.2542,-3.2542,-3.2595,-3.2597,-3.2598,-3.26,-3.2619,-3.2618,-3.2617,-3.2579,0,0,-3.2615,-3.2614,0,0,0,0,0,0,0,0,-3.2519,-3.252,-3.2541,-3.2544,-3.2547,-3.2567,-3.2546,-3.2554,-3.2595,-3.2577,-3.2599,-3.2601,-3.2599,-3.26,-3.2601,-3.258,-3.2581,-3.2615,-3.2614,-3.2614,-3.2614,0,0,0,0,0,0,0,-3.2518,-3.2519,-3.2526,-3.2542,-3.2545,-3.2557,-3.2561,-3.2548,-3.2579,-3.2579,-3.2583,-3.2586,-3.2601,-3.2602,-3.2602,-3.2582,-3.2615,-3.2614,-3.2614,-3.2613,-3.2533,-3.2531,0,0,0,0,0,0,-3.2514,-3.2518,-3.2525,-3.2527,-3.2537,-3.2556,-3.256,-3.2559,-3.2579,-3.2584,-3.2584,-3.2588,-3.2602,-3.2603,-3.2603,-3.2562,-3.2614,-3.2613,-3.2613,-3.2535,-3.2533,-3.2531,0,0,0,0,0,0,-3.2513,-3.2514,-3.2524,-3.2524,-3.2526,-3.2554,-3.2553,-3.2559,-3.2559,-3.2583,-3.2588,-3.258,-3.2604,-3.2604,-3.2586,-3.2563,-3.2613,-3.2612,-3.2537,-3.2534,-3.2532,-3.2478,0,0,0,0,0,0,-3.2513,-3.2514,-3.25,-3.2523,-3.2526,-3.2507,-3.2552,-3.2558,-3.2559,-3.2564,-3.258,-3.2584,-3.2605,-3.2587,-3.2585,-3.2563,-3.2612,-3.2539,-3.2535,-3.2533,-3.2482,-3.2474,-3.2467,0,0,0,0,0,-3.2513,-3.2482,-3.25,-3.25,-3.251,-3.2506,-3.2507,-3.2534,-3.2557,-3.2543,-3.2559,-3.2584,-3.2566,-3.2584,-3.2583,-3.256,-3.254,-3.2536,-3.2533,-3.2485,-3.2475,-3.2467,0,0,0,0,0,0,-3.2453,-3.2486,-3.2505,-3.2482,-3.2491,-3.2515,-3.2499,-3.2523,-3.2524,-3.2528,-3.2559,-3.2563,-3.254,-3.2548,-3.2568,-3.2526,-3.2557,-3.2553,-3.2521,-3.2512,-3.2505,-3.2503,-3.2611,0,0,0,0,0,-3.2438,-3.2434,-3.2462,-3.2438,-3.2442,-3.247,-3.2469,-3.2489,-3.2499,-3.2502,-3.2517,-3.2524,-3.252,-3.2517,-3.2514,-3.2484,-3.2488,-3.2467,-3.246,-3.2454,-3.2449,-3.2435,-3.2426,-3.2518,-3.2518,-3.2519,0,0,-3.2405,-3.2422,-3.2417,-3.2427,-3.2436,-3.243,-3.2472,-3.2463,-3.2459,-3.25,-3.2485,-3.2496,-3.2506,-3.2482,-3.2471,-3.2488,-3.2425,-3.2449,-3.2444,-3.2443,-3.243,-3.2421,-3.2414,-3.2516,-3.2516,-3.2517,0,0,-3.2342,-3.2355,-3.2338,-3.2348,-3.2363,-3.2382,-3.2378,-3.2399,-3.2409,-3.2395,-3.2427,-3.2421,-3.2413,-3.242,-3.2422,-3.2365,-3.2388,-3.2363,-3.2324,-3.2309,-3.2302,-3.2296,-3.2276,-3.2268,-3.2359,-3.2359,-3.2358,0,-3.2299,-3.2293,-3.2325,-3.2315,-3.2319,-3.236,-3.2342,-3.2349,-3.2361,-3.2362,-3.2381,-3.2375,-3.2384,-3.2362,-3.2349,-3.2349,-3.2345,-3.2361,-3.2301,-3.2295,-3.229,-3.2271,-3.2263,-3.2356,-3.2356,-3.2356,-3.2356,0,-3.2239,-3.2234,-3.2218,-3.2233,-3.2235,-3.222,-3.225,-3.2247,-3.2268,-3.2285,-3.227,-3.2283,-3.2285,-3.2282,-3.23,-3.2263,-3.2273,-3.2296,-3.2328,-3.2277,-3.226,-3.2253,-3.2351,-3.2352,-3.2353,-3.2354,0,0,-3.2137,-3.2173,-3.2167,-3.2175,-3.2196,-3.2192,-3.218,-3.2185,-3.2183,-3.219,-3.2181,-3.2175,-3.2198,-3.22,-3.222,-3.2207,-3.2162,-3.2232,-3.2232,-3.2219,-3.2123,-3.2106,-3.2097,-3.2178,-3.2177,-3.2176,-3.2123,0,-3.2079,-3.2063,-3.2093,-3.2069,-3.2066,-3.2106,-3.2095,-3.2107,-3.2122,-3.212,-3.2137,-3.2133,-3.2162,-3.2164,-3.2154,-3.217,-3.2143,-3.2174,-3.2168,-3.2168,-3.2165,-3.2088,-3.207,-3.2018,-3.2116,-3.2115,-3.2114,0,-3.2009,-3.2017,-3.1994,-3.2019,-3.2019,-3.2009,-3.2017,-3.2015,-3.2029,-3.2041,-3.2046,-3.2071,-3.206,-3.2091,-3.2076,-3.2097,-3.2096,-3.2104,-3.2103,-3.2103,-3.2138,-3.2086,-3.2003,-3.1995,-3.2104,-3.2105,-3.2105,0,-3.1938,-3.1943,-3.193,-3.1936,-3.1965,-3.1957,-3.1968,-3.1984,-3.1986,-3.1992,-3.1994,-3.1997,-3.1999,-3.2001,-3.2026,-3.2047,-3.2008,-3.2042,-3.2017,-3.2017,-3.2007,-3.2007,-3.1922,-3.2006,-3.2007,-3.2007,-3.2007,0,-3.187,-3.1854,-3.1899,-3.1891,-3.1875,-3.191,-3.1892,-3.1907,-3.1921,-3.1916,-3.1949,-3.1943,-3.1977,-3.1974,-3.1993,-3.1979,-3.1979,-3.1988,-3.1993,-3.1985,-3.1984,-3.1984,-3.1989,-3.2005,-3.2005,-3.2006,-3.2006,0,-3.1787,-3.1817,-3.1806,-3.1836,-3.1843,-3.1829,-3.1854,-3.1847,-3.1867,-3.186,-3.186,-3.1889,-3.1888,-3.1914,-3.1916,-3.193,-3.1906,-3.1917,-3.1902,-3.1906,-3.188,-3.1882,-3.1793,-3.1783,-3.1873,-3.1872,-3.1872,0,-3.1742,-3.1731,-3.1761,-3.1762,-3.1772,-3.1772,-3.1775,-3.1809,-3.181,-3.1827,-3.1818,-3.182,-3.1824,-3.182,-3.184,-3.1843,-3.1855,-3.1824,-3.1855,-3.1848,-3.1855,-3.1855,-3.1855,-3.1816,-3.1815,-3.1814,-3.1813,0,-3.1658,-3.1675,-3.1679,-3.1689,-3.1693,-3.1701,-3.1712,-3.171,-3.1747,-3.1747,-3.1748,-3.1751,-3.1756,-3.1758,-3.1765,-3.1775,-3.18,-3.1804,-3.1798,-3.1789,-3.1781,-3.1786,-3.1884,-3.1805,-3.1806,-3.1807,-3.1807,-3.1807,-3.1593,-3.1587,-3.1607,-3.1612,-3.1624,-3.1634,-3.163,-3.1651,-3.1653,-3.1662,-3.1681,-3.1679,-3.1694,-3.1707,-3.1715,-3.1713,-3.1729,-3.172,-3.1718,-3.1716,-3.1711,-3.1782,-3.1714,-3.1715,-3.1715,-3.1715,-3.1715,0,-3.1512,-3.1528,-3.1532,-3.1548,-3.1551,-3.1578,-3.1592,-3.1592,-3.1591,-3.1605,-3.1609,-3.1611,-3.1613,-3.1635,-3.164,-3.1634,-3.1646,-3.1634,-3.1635,-3.1637,-3.1697,-3.1702,-3.1625,-3.1625,-3.1625,-3.1625,-3.1625,-3.1625,-3.147,-3.1461,-3.1479,-3.1477,-3.1493,-3.1493,-3.1499,-3.1508,-3.152,-3.1521,-3.1525,-3.154,-3.1557,-3.1564,-3.1567,-3.1573,-3.1573,-3.1558,-3.1568,-3.1624,-3.1632,-3.1641,-3.1645,-3.1558,-3.1558,-3.1508,-3.1508,-3.1507]}]]